User: anonymous   Login
Location: Focicchia
(42.2496°N, 9.2935°E)
Time: 23:41:06
(UTC+00:00)
Language:

CZ-2D R/B - Orbit

View from above orbital plane
View from above orbital plane
View from above satellite
View from above satellite

Ground track
Ground track

The orbit data is extracted from the following two-line orbital elements,

1 37932U 11068C   21167.55945909  .00000014  00000-0  25844-4 0  9995
2 37932  98.6903 103.7522 0037890 130.1187  43.5238 14.22073735496793
Epoch (UTC): 16 June 2021 13:25:37
Eccentricity: 0.0037890
inclination: 98.6903°
perigee height: 791 km
apogee height: 845 km
right ascension of ascending node: 103.7522°
argument of perigee: 130.1187°
revolutions per day: 14.22073735
mean anomaly at epoch: 43.5238°
orbit number at epoch: 49679

The dashed part of the orbit path shows where the satellite is in the earth's shadow,  

DLR